FREGAT DEB, 46002

Orbit data source: Space-Track

FREGAT DEB, 46002 is space debris in LEO originally from a launch on Mon, 18 Jul 2011 UTC launched from the Tyuratam Missile And Space Complex (TTMTR). Debris objects in space refer to the collection of defunct objects orbiting the Earth. Examples of debris include non-operational satellites, rocket bodies, and fragments generated from explosions, collisions, or faulty payload assembly.

Loading next visibility...
Identifier
46002, 2011-037HD
Orbit
LEO
Country
Flag of CISCIS
Related business
Manufacturer
Lavochkin
Mission
Spacecraft
Bus & Motor
Unknown
Mass
Unknown
Launch date (UTC)
2011-07-18 (15 years ago)
Launch vehicle
Unknown
Launch site
Tyuratam Missile And Space Complex (TTMTR)
Object type
Payload
Rocket body
Debris
Shape & HBR
Unknown shape, 0.1 m
Radar Cross Section
Small (<0.1 m²)

Expand to show TLE details & history
Last TLE update: 7 hours ago

TLE from 7 hours ago
0 FREGAT DEB
1 46002U 11037HD  26127.24171102  .00018256  00000-0  21504-1 0  9995
2 46002  51.2931 309.4360 1468440  85.4269 291.2214 11.57295473223531
Epoch: 2026-05-07T05:48Z
TLE epoch observation values (Epoch: 2026-05-07T05:48:03.832Z)
Latitude
-0.00001°
Longitude
-2.67065°
Altitude
1,605.276 km
Speed
7.184 km/s
True Right ascension
20h 37m 44s
True Declination
0° 00' 00"
Sunlit
Object was in daylight at epoch
Visualization orbit readout
Latitude
Unknown
Longitude
Unknown
Altitude
Unknown
Speed
Unknown
Apparent Right ascension
Unknown
Apparent Declination
Unknown
Sunlit
N/A
Visualization observer readout
Local Sidereal Time
20:51:30
Azimuth
Unknown
Elevation
Unknown
Doppler factor
Unknown
Orbital elements
Apogee altitude
3,090.818 km
Perigee altitude
665.973 km
Semi-major axis
8,256.533 km
Eccentricity
0.14684
Inclination
51.2931°
RAAN
309.436°
Arg. of periapsis
85.4269°
True anomaly
274.65799°
Mean anomaly
291.2214°
Eccentric anomaly
283.0243°
Mean motion
2.89299 °/min
Orbital period
124.44 mins
BSTAR
0.021504
Loading maneuver chart data...
Computing Atmospheric mass density...
Loading historical data...
Loading historical data...
Loading historical data...
Loading historical data...
Loading historical data...
Loading historical data...
Loading historical data...

Documentation

Showing up to 5 results
|